Location: Marcé
(47.5801°N, 0.3280°W)
Time: 07:02:23
(UTC+01:00)

Vanguard 1 Rocket - Pass Details

Date: 07 December 2021
Orbit: 651 x 4224 km, 34.3° (Epoch: 23 January)

Event Time Altitude Azimuth Distance (km) Brightness Sun altitude
Exits shadow 03:46:15 43° 151° (SSE) 3,073 9.9 -47.4°
Drops below altitude 10° 04:02:08 10° 100° (E) 6,553 12.2 -44.9°
Sets 04:08:32 0° 96° (E) 8,002 12.9 -43.9°
